| time (UTC) | temp F | wind direction | speed MPH | gust MPH | rain 1hr in | rain 24hr in | rain mn in | humidity % | barometer mb |
| 20260509080144 | 51 | 360 | 2.0 | 5.0 | 0.00 | 0.00 | 0.00 | 73 | 1004.7 |
| 20260509075636 | 51 | 171 | 2.0 | 4.0 | 0.00 | 0.00 | 0.00 | 72 | 1004.7 |
| 20260509075154 | 52 | 177 | 2.0 | 4.0 | 0.00 | 0.00 | 0.00 | 71 | 1004.7 |
| 20260509074629 | 52 | 150 | 1.0 | 4.0 | 0.00 | 0.00 | 0.00 | 70 | 1004.8 |
| 20260509074135 | 52 | 146 | 2.0 | 5.0 | 0.00 | 0.00 | 0.00 | 69 | 1004.9 |
| 20260509073646 | 52 | 360 | 2.0 | 5.0 | 0.00 | 0.00 | 0.00 | 69 | 1004.8 |
| 20260509073149 | 52 | 167 | 2.0 | 5.0 | 0.00 | 0.00 | 0.00 | 68 | 1004.9 |
| 20260509072631 | 52 | 360 | 3.0 | 6.0 | 0.00 | 0.00 | 0.00 | 67 | 1004.9 |
| 20260509072151 | 52 | 177 | 2.0 | 7.0 | 0.00 | 0.00 | 0.00 | 66 | 1005.0 |
| 20260509071645 | 52 | 194 | 3.0 | 10.0 | 0.00 | 0.00 | 0.00 | 66 | 1005.1 |
| 20260509071136 | 53 | 161 | 3.0 | 10.0 | 0.00 | 0.00 | 0.00 | 64 | 1005.1 |
| 20260509070642 | 53 | 360 | 4.0 | 9.0 | 0.00 | 0.00 | 0.00 | 63 | 1005.1 |
| 20260509070146 | 53 | 360 | 4.0 | 9.0 | 0.00 | 0.00 | 0.00 | 62 | 1005.2 |
| 20260509065657 | 53 | 175 | 2.0 | 10.0 | 0.00 | 0.00 | 0.00 | 60 | 1005.1 |
| 20260509065127 | 53 | 360 | 3.0 | 10.0 | 0.00 | 0.00 | 0.00 | 57 | 1005.1 |
| 20260509064641 | 53 | 159 | 3.0 | 7.0 | 0.00 | 0.00 | 0.00 | 55 | 1005.0 |
| 20260509064201 | 53 | 360 | 3.0 | 12.0 | 0.00 | 0.00 | 0.00 | 52 | 1005.3 |
| 20260509063647 | 53 | 190 | 3.0 | 12.0 | 0.00 | 0.00 | 0.00 | 50 | 1005.4 |
| 20260509063149 | 52 | 360 | 4.0 | 10.0 | 0.00 | 0.00 | 0.00 | 48 | 1005.4 |
| 20260509062700 | 52 | 146 | 4.0 | 9.0 | 0.00 | 0.00 | 0.00 | 46 | 1005.6 |
| 20260509062149 | 52 | 207 | 3.0 | 5.0 | 0.00 | 0.00 | 0.00 | 44 | 1005.5 |
| 20260509061653 | 52 | 360 | 3.0 | 8.0 | 0.00 | 0.00 | 0.00 | 43 | 1005.6 |
| 20260509061142 | 52 | 146 | 4.0 | 8.0 | 0.00 | 0.00 | 0.00 | 42 | 1005.6 |
| 20260509060648 | 52 | 148 | 4.0 | 8.0 | 0.00 | 0.00 | 0.00 | 42 | 1005.5 |
| 20260509060151 | 52 | 167 | 3.0 | 9.0 | 0.00 | 0.00 | 0.00 | 42 | 1005.6 |
| 20260509055642 | 52 | 153 | 3.0 | 9.0 | 0.00 | 0.00 | 0.00 | 42 | 1005.7 |
| 20260509055152 | 52 | 153 | 3.0 | 8.0 | 0.00 | 0.00 | 0.00 | 42 | 1005.8 |
| 20260509054626 | 52 | 182 | 3.0 | 8.0 | 0.00 | 0.00 | 0.00 | 42 | 1005.9 |
| 20260509054137 | 52 | 178 | 4.0 | 7.0 | 0.00 | 0.00 | 0.00 | 41 | 1005.9 |
| 20260509053628 | 52 | 184 | 3.0 | 4.0 | 0.00 | 0.00 | 0.00 | 42 | 1006.0 |
| 20260509053148 | 52 | 188 | 3.0 | 4.0 | 0.00 | 0.00 | 0.00 | 42 | 1005.9 |
| 20260509052639 | 52 | 172 | 2.0 | 4.0 | 0.00 | 0.00 | 0.00 | 42 | 1005.9 |
| 20260509052149 | 52 | 171 | 3.0 | 4.0 | 0.00 | 0.00 | 0.00 | 41 | 1005.9 |
| 20260509051653 | 52 | 360 | 2.0 | 5.0 | 0.00 | 0.00 | 0.00 | 41 | 1005.8 |
| 20260509051134 | 52 | 171 | 3.0 | 7.0 | 0.00 | 0.00 | 0.00 | 41 | 1005.9 |
| 20260509050625 | 52 | 159 | 3.0 | 8.0 | 0.00 | 0.00 | 0.00 | 41 | 1006.0 |
| 20260509050130 | 52 | 155 | 2.0 | 8.0 | 0.00 | 0.00 | 0.00 | 41 | 1006.0 |
| 20260509045657 | 52 | 148 | 4.0 | 8.0 | 0.00 | 0.00 | 0.00 | 41 | 1006.0 |
| 20260509045146 | 52 | 144 | 3.0 | 6.0 | 0.00 | 0.00 | 0.00 | 41 | 1006.0 |
| 20260509044628 | 52 | 166 | 2.0 | 6.0 | 0.00 | 0.00 | 0.00 | 40 | 1006.1 |
| 20260509044159 | 52 | 155 | 2.0 | 6.0 | 0.00 | 0.00 | 0.00 | 41 | 1006.0 |
| 20260509043628 | 52 | 156 | 3.0 | 6.0 | 0.00 | 0.00 | 0.00 | 40 | 1006.0 |
| 20260509043148 | 53 | 160 | 3.0 | 5.0 | 0.00 | 0.00 | 0.00 | 40 | 1006.1 |
| 20260509042639 | 53 | 166 | 2.0 | 5.0 | 0.00 | 0.00 | 0.00 | 40 | 1006.2 |
| 20260509042149 | 53 | 172 | 2.0 | 4.0 | 0.00 | 0.00 | 0.00 | 40 | 1006.2 |
| 20260509041704 | 53 | 155 | 2.0 | 3.0 | 0.00 | 0.00 | 0.00 | 40 | 1006.2 |
| 20260509041141 | 53 | 153 | 1.0 | 2.0 | 0.00 | 0.00 | 0.00 | 41 | 1006.4 |
| 20260509040632 | 53 | 153 | 0.0 | 3.0 | 0.00 | 0.00 | 0.00 | 40 | 1006.4 |
| 20260509040126 | 53 | 153 | 1.0 | 3.0 | 0.00 | 0.00 | 0.00 | 40 | 1006.4 |
| 20260509035633 | 54 | 153 | 1.0 | 3.0 | 0.00 | 0.00 | 0.00 | 40 | 1006.6 |
| 20260509035143 | 54 | 153 | 1.0 | 3.0 | 0.00 | 0.00 | 0.00 | 39 | 1006.7 |
| 20260509034647 | 54 | 153 | 2.0 | 3.0 | 0.00 | 0.00 | 0.00 | 39 | 1006.7 |
| 20260509034129 | 54 | 154 | 1.0 | 3.0 | 0.00 | 0.00 | 0.00 | 39 | 1006.6 |
| 20260509033648 | 54 | 153 | 1.0 | 5.0 | 0.00 | 0.00 | 0.00 | 39 | 1006.7 |
| 20260509033142 | 54 | 153 | 2.0 | 5.0 | 0.00 | 0.00 | 0.00 | 38 | 1006.7 |
| 20260509032634 | 54 | 153 | 0.0 | 5.0 | 0.00 | 0.00 | 0.00 | 39 | 1006.7 |
| 20260509032145 | 54 | 153 | 2.0 | 5.0 | 0.00 | 0.00 | 0.00 | 38 | 1006.8 |
| 20260509031636 | 54 | 153 | 1.0 | 2.0 | 0.00 | 0.00 | 0.00 | 38 | 1006.9 |
| 20260509031147 | 54 | 153 | 1.0 | 2.0 | 0.00 | 0.00 | 0.00 | 38 | 1006.9 |
| 20260509030646 | 55 | 153 | 1.0 | 3.0 | 0.00 | 0.00 | 0.00 | 38 | 1007.0 |
| 20260509030141 | 55 | 153 | 1.0 | 3.0 | 0.00 | 0.00 | 0.00 | 38 | 1007.0 |
| 20260509025632 | 55 | 153 | 0.0 | 6.0 | 0.00 | 0.00 | 0.00 | 38 | 1007.1 |
| 20260509025203 | 55 | 152 | 2.0 | 6.0 | 0.00 | 0.00 | 0.00 | 37 | 1007.1 |
| 20260509024642 | 55 | 153 | 1.0 | 5.0 | 0.00 | 0.00 | 0.00 | 37 | 1007.3 |
| 20260509024132 | 55 | 155 | 2.0 | 5.0 | 0.00 | 0.00 | 0.00 | 37 | 1007.4 |
| 20260509023643 | 55 | 156 | 1.0 | 2.0 | 0.00 | 0.00 | 0.00 | 37 | 1007.4 |
| 20260509023208 | 55 | 156 | 0.0 | 2.0 | 0.00 | 0.00 | 0.00 | 37 | 1007.4 |
| 20260509022627 | 56 | 153 | 0.0 | 2.0 | 0.00 | 0.00 | 0.00 | 37 | 1007.4 |
| 20260509022147 | 56 | 153 | 1.0 | 2.0 | 0.00 | 0.00 | 0.00 | 37 | 1007.4 |
| 20260509021642 | 56 | 153 | 0.0 | 2.0 | 0.00 | 0.00 | 0.00 | 37 | 1007.3 |
| 20260509021133 | 56 | 152 | 1.0 | 2.0 | 0.00 | 0.00 | 0.00 | 36 | 1007.3 |
| 20260509020639 | 56 | 152 | 0.0 | 2.0 | 0.00 | 0.00 | 0.00 | 36 | 1007.3 |
| 20260509020133 | 57 | 152 | 0.0 | 2.0 | 0.00 | 0.00 | 0.00 | 36 | 1007.3 |
| 20260509015644 | 57 | 151 | 0.0 | 3.0 | 0.00 | 0.00 | 0.00 | 36 | 1007.1 |
| 20260509015142 | 57 | 151 | 1.0 | 5.0 | 0.00 | 0.00 | 0.00 | 35 | 1007.0 |
| 20260509014636 | 57 | 151 | 2.0 | 5.0 | 0.00 | 0.00 | 0.00 | 35 | 1007.1 |
| 20260509014127 | 58 | 152 | 3.0 | 5.0 | 0.00 | 0.00 | 0.00 | 34 | 1007.1 |
| 20260509013638 | 57 | 143 | 3.0 | 5.0 | 0.00 | 0.00 | 0.00 | 34 | 1007.1 |
| 20260509013128 | 57 | 167 | 1.0 | 2.0 | 0.00 | 0.00 | 0.00 | 35 | 1007.1 |
| 20260509012649 | 58 | 167 | 1.0 | 3.0 | 0.00 | 0.00 | 0.00 | 34 | 1007.1 |
| 20260509012130 | 58 | 167 | 0.0 | 3.0 | 0.00 | 0.00 | 0.00 | 34 | 1007.1 |
| 20260509011633 | 58 | 360 | 1.0 | 2.0 | 0.00 | 0.00 | 0.00 | 34 | 1007.1 |
| 20260509011142 | 58 | 167 | 0.0 | 2.0 | 0.00 | 0.00 | 0.00 | 34 | 1007.1 |
| 20260509010633 | 59 | 360 | 0.0 | 3.0 | 0.00 | 0.00 | 0.00 | 33 | 1007.1 |
| 20260509010128 | 59 | 167 | 1.0 | 3.0 | 0.00 | 0.00 | 0.00 | 32 | 1007.2 |
| 20260509005644 | 59 | 178 | 1.0 | 3.0 | 0.00 | 0.00 | 0.00 | 32 | 1007.1 |
| 20260509005133 | 59 | 166 | 1.0 | 5.0 | 0.00 | 0.00 | 0.00 | 32 | 1007.1 |
| 20260509004627 | 59 | 360 | 2.0 | 5.0 | 0.00 | 0.00 | 0.00 | 31 | 1007.1 |
| 20260509004138 | 60 | 157 | 2.0 | 5.0 | 0.00 | 0.00 | 0.00 | 31 | 1007.2 |
| 20260509003629 | 60 | 168 | 1.0 | 5.0 | 0.00 | 0.00 | 0.00 | 31 | 1007.2 |
| 20260509003132 | 60 | 166 | 2.0 | 6.0 | 0.00 | 0.00 | 0.00 | 31 | 1007.2 |
| 20260509002643 | 60 | 188 | 3.0 | 7.0 | 0.00 | 0.00 | 0.00 | 31 | 1007.3 |
| 20260509002130 | 60 | 177 | 4.0 | 7.0 | 0.00 | 0.00 | 0.00 | 31 | 1007.3 |
| 20260509001714 | 61 | 360 | 3.0 | 8.0 | 0.00 | 0.00 | 0.00 | 31 | 1007.4 |
| 20260509001132 | 61 | 360 | 5.0 | 8.0 | 0.00 | 0.00 | 0.00 | 30 | 1007.4 |
| 20260509000652 | 61 | 185 | 4.0 | 8.0 | 0.00 | 0.00 | 0.00 | 29 | 1007.5 |
| 20260509000127 | 61 | 205 | 4.0 | 8.0 | 0.00 | 0.00 | 0.00 | 29 | 1007.5 |
| 20260508235638 | 62 | 360 | 3.0 | 10.0 | 0.00 | 0.00 | 0.00 | 29 | 1007.5 |
| 20260508235129 | 62 | 203 | 5.0 | 10.0 | 0.00 | 0.00 | 0.00 | 30 | 1007.6 |
| 20260508234640 | 62 | 208 | 6.0 | 8.0 | 0.00 | 0.00 | 0.00 | 30 | 1007.7 |
| 20260508234131 | 62 | 360 | 6.0 | 12.0 | 0.00 | 0.00 | 0.00 | 30 | 1007.6 |
| 20260508233642 | 62 | 221 | 7.0 | 12.0 | 0.00 | 0.00 | 0.00 | 30 | 1007.6 |
| 20260508233145 | 63 | 360 | 6.0 | 11.0 | 0.00 | 0.00 | 0.00 | 30 | 1007.7 |
| 20260508232636 | 63 | 223 | 4.0 | 9.0 | 0.00 | 0.00 | 0.00 | 29 | 1007.7 |
| 20260508232147 | 63 | 202 | 4.0 | 11.0 | 0.00 | 0.00 | 0.00 | 28 | 1007.7 |
| 20260508231642 | 63 | 259 | 6.0 | 11.0 | 0.00 | 0.00 | 0.00 | 29 | 1007.8 |
| 20260508231132 | 63 | 233 | 6.0 | 11.0 | 0.00 | 0.00 | 0.00 | 29 | 1007.8 |
| 20260508230638 | 63 | 223 | 4.0 | 8.0 | 0.00 | 0.00 | 0.00 | 29 | 1007.8 |
| 20260508230202 | 63 | 360 | 3.0 | 8.0 | 0.00 | 0.00 | 0.00 | 29 | 1007.8 |
| 20260508225632 | 63 | 244 | 4.0 | 8.0 | 0.00 | 0.00 | 0.00 | 29 | 1007.7 |
| 20260508225141 | 63 | 360 | 4.0 | 9.0 | 0.00 | 0.00 | 0.00 | 29 | 1007.8 |
| 20260508224645 | 63 | 360 | 3.0 | 9.0 | 0.00 | 0.00 | 0.00 | 29 | 1007.8 |
| 20260508224156 | 63 | 244 | 4.0 | 9.0 | 0.00 | 0.00 | 0.00 | 29 | 1007.8 |
| 20260508223642 | 63 | 360 | 4.0 | 11.0 | 0.00 | 0.00 | 0.00 | 29 | 1007.7 |
| 20260508223137 | 63 | 360 | 7.0 | 11.0 | 0.00 | 0.00 | 0.00 | 29 | 1007.8 |
| 20260508222628 | 63 | 360 | 5.0 | 16.0 | 0.00 | 0.00 | 0.00 | 28 | 1007.8 |
| 20260508222139 | 63 | 360 | 7.0 | 16.0 | 0.00 | 0.00 | 0.00 | 30 | 1008.0 |
| 20260508221643 | 63 | 360 | 7.0 | 12.0 | 0.00 | 0.00 | 0.00 | 29 | 1008.0 |
| 20260508221154 | 63 | 206 | 8.0 | 12.0 | 0.00 | 0.00 | 0.00 | 30 | 1008.0 |
| 20260508220643 | 64 | 360 | 4.0 | 10.0 | 0.00 | 0.00 | 0.00 | 30 | 1007.9 |
| 20260508220203 | 63 | 360 | 5.0 | 11.0 | 0.00 | 0.00 | 0.00 | 29 | 1008.1 |
| 20260508215630 | 63 | 360 | 7.0 | 11.0 | 0.00 | 0.00 | 0.00 | 29 | 1007.9 |
| 20260508215140 | 63 | 360 | 4.0 | 11.0 | 0.00 | 0.00 | 0.00 | 29 | 1007.9 |
| 20260508214635 | 63 | 32 | 5.0 | 11.0 | 0.00 | 0.00 | 0.00 | 29 | 1007.9 |
| 20260508214126 | 63 | 360 | 3.0 | 9.0 | 0.00 | 0.00 | 0.00 | 30 | 1007.9 |
| 20260508213706 | 63 | 360 | 5.0 | 11.0 | 0.00 | 0.00 | 0.00 | 29 | 1008.0 |
| 20260508213136 | 63 | 360 | 6.0 | 12.0 | 0.00 | 0.00 | 0.00 | 29 | 1008.0 |
| 20260508212627 | 64 | 360 | 4.0 | 9.0 | 0.00 | 0.00 | 0.00 | 29 | 1008.1 |
| 20260508212158 | 64 | 360 | 5.0 | 9.0 | 0.00 | 0.00 | 0.00 | 29 | 1008.1 |
| 20260508211640 | 64 | 360 | 3.0 | 10.0 | 0.00 | 0.00 | 0.00 | 31 | 1008.1 |
| 20260508211151 | 64 | 360 | 5.0 | 10.0 | 0.00 | 0.00 | 0.00 | 29 | 1008.1 |
| 20260508210642 | 64 | 300 | 5.0 | 11.0 | 0.00 | 0.00 | 0.00 | 28 | 1008.2 |
| 20260508210158 | 64 | 360 | 5.0 | 11.0 | 0.00 | 0.00 | 0.00 | 30 | 1008.3 |
| 20260508205652 | 63 | 360 | 3.0 | 13.0 | 0.00 | 0.00 | 0.00 | 29 | 1008.2 |
| 20260508205133 | 63 | 360 | 5.0 | 13.0 | 0.00 | 0.00 | 0.00 | 29 | 1008.3 |
| 20260508204657 | 64 | 360 | 5.0 | 11.0 | 0.00 | 0.00 | 0.00 | 29 | 1008.3 |
| 20260508204126 | 63 | 360 | 6.0 | 12.0 | 0.00 | 0.00 | 0.00 | 29 | 1008.3 |
| 20260508203637 | 63 | 360 | 6.0 | 16.0 | 0.00 | 0.00 | 0.00 | 30 | 1008.4 |
| 20260508203132 | 63 | 229 | 8.0 | 16.0 | 0.00 | 0.00 | 0.00 | 30 | 1008.5 |
| 20260508202652 | 63 | 360 | 5.0 | 12.0 | 0.00 | 0.00 | 0.00 | 30 | 1008.4 |
| 20260508202138 | 63 | 360 | 8.0 | 13.0 | 0.00 | 0.00 | 0.00 | 29 | 1008.5 |
| 20260508201633 | 64 | 360 | 5.0 | 9.0 | 0.00 | 0.00 | 0.00 | 28 | 1008.6 |
| 20260508201143 | 64 | 360 | 3.0 | 11.0 | 0.00 | 0.00 | 0.00 | 29 | 1008.6 |
| 20260508200633 | 63 | 305 | 5.0 | 11.0 | 0.00 | 0.00 | 0.00 | 30 | 1008.7 |
| 20260508200137 | 63 | 360 | 4.0 | 14.0 | 0.00 | 0.00 | 0.00 | 29 | 1008.8 |
| 20260508195648 | 63 | 360 | 7.0 | 14.0 | 0.00 | 0.00 | 0.00 | 30 | 1008.9 |
| 20260508195139 | 63 | 288 | 7.0 | 13.0 | 0.00 | 0.00 | 0.00 | 30 | 1008.9 |
| 20260508194629 | 63 | 360 | 5.0 | 11.0 | 0.00 | 0.00 | 0.00 | 29 | 1008.9 |
| 20260508194140 | 63 | 360 | 4.0 | 11.0 | 0.00 | 0.00 | 0.00 | 30 | 1009.0 |
| 20260508193631 | 62 | 360 | 2.0 | 12.0 | 0.00 | 0.00 | 0.00 | 29 | 1009.1 |
| 20260508193126 | 62 | 360 | 7.0 | 14.0 | 0.00 | 0.00 | 0.00 | 29 | 1009.2 |
| 20260508192645 | 62 | 360 | 6.0 | 16.0 | 0.00 | 0.00 | 0.00 | 30 | 1009.2 |
| 20260508192127 | 62 | 360 | 7.0 | 16.0 | 0.00 | 0.00 | 0.00 | 29 | 1009.2 |
| 20260508191651 | 62 | 360 | 6.0 | 15.0 | 0.00 | 0.00 | 0.00 | 31 | 1009.1 |
| 20260508191206 | 62 | 360 | 4.0 | 15.0 | 0.00 | 0.00 | 0.00 | 31 | 1009.2 |
| 20260508190627 | 62 | 220 | 5.0 | 12.0 | 0.00 | 0.00 | 0.00 | 30 | 1009.2 |
| 20260508190129 | 62 | 360 | 4.0 | 12.0 | 0.00 | 0.00 | 0.00 | 29 | 1009.4 |
| 20260508185640 | 62 | 360 | 5.0 | 10.0 | 0.00 | 0.00 | 0.00 | 31 | 1009.4 |
| 20260508185131 | 62 | 360 | 5.0 | 10.0 | 0.00 | 0.00 | 0.00 | 30 | 1009.4 |
| 20260508184635 | 62 | 360 | 4.0 | 10.0 | 0.00 | 0.00 | 0.00 | 32 | 1009.5 |
| 20260508184145 | 61 | 360 | 5.0 | 12.0 | 0.00 | 0.00 | 0.00 | 30 | 1009.5 |
| 20260508183632 | 62 | 360 | 6.0 | 13.0 | 0.00 | 0.00 | 0.00 | 30 | 1009.6 |
| 20260508183127 | 62 | 360 | 7.0 | 13.0 | 0.00 | 0.00 | 0.00 | 30 | 1009.6 |
| 20260508182637 | 62 | 360 | 5.0 | 13.0 | 0.00 | 0.00 | 0.00 | 31 | 1009.7 |
| 20260508182126 | 61 | 360 | 7.0 | 13.0 | 0.00 | 0.00 | 0.00 | 30 | 1009.7 |
| 20260508181650 | 61 | 360 | 5.0 | 12.0 | 0.00 | 0.00 | 0.00 | 31 | 1009.7 |
| 20260508181132 | 61 | 360 | 2.0 | 13.0 | 0.00 | 0.00 | 0.00 | 32 | 1009.8 |
| 20260508180651 | 61 | 360 | 4.0 | 14.0 | 0.00 | 0.00 | 0.00 | 32 | 1009.8 |
| 20260508180142 | 61 | 224 | 5.0 | 11.0 | 0.00 | 0.00 | 0.00 | 33 | 1009.9 |
| 20260508175633 | 60 | 360 | 5.0 | 11.0 | 0.00 | 0.00 | 0.00 | 33 | 1009.9 |
| 20260508175143 | 60 | 360 | 3.0 | 11.0 | 0.00 | 0.00 | 0.00 | 33 | 1010.1 |
| 20260508174646 | 60 | 360 | 6.0 | 9.0 | 0.00 | 0.00 | 0.00 | 35 | 1010.1 |
| 20260508174136 | 60 | 360 | 4.0 | 9.0 | 0.00 | 0.00 | 0.00 | 35 | 1010.3 |
| 20260508173627 | 60 | 360 | 2.0 | 10.0 | 0.00 | 0.00 | 0.00 | 37 | 1010.4 |
| 20260508173146 | 60 | 360 | 5.0 | 10.0 | 0.00 | 0.00 | 0.00 | 37 | 1010.5 |
| 20260508172636 | 59 | 360 | 6.0 | 12.0 | 0.00 | 0.00 | 0.00 | 37 | 1010.5 |
| 20260508172146 | 59 | 360 | 8.0 | 12.0 | 0.00 | 0.00 | 0.00 | 38 | 1010.5 |
| 20260508171641 | 59 | 360 | 1.0 | 9.0 | 0.00 | 0.00 | 0.00 | 37 | 1010.6 |
| 20260508171152 | 59 | 360 | 5.0 | 12.0 | 0.00 | 0.00 | 0.00 | 37 | 1010.7 |
| 20260508170651 | 60 | 360 | 8.0 | 12.0 | 0.00 | 0.00 | 0.00 | 35 | 1010.9 |
| 20260508170126 | 61 | 360 | 6.0 | 12.0 | 0.00 | 0.00 | 0.00 | 35 | 1011.0 |
| 20260508165637 | 60 | 360 | 7.0 | 12.0 | 0.00 | 0.00 | 0.00 | 35 | 1011.0 |
| 20260508165144 | 60 | 360 | 1.0 | 11.0 | 0.00 | 0.00 | 0.00 | 37 | 1011.1 |
| 20260508164708 | 59 | 169 | 5.0 | 13.0 | 0.00 | 0.00 | 0.00 | 38 | 1011.2 |
| 20260508164158 | 59 | 360 | 6.0 | 15.0 | 0.00 | 0.00 | 0.00 | 37 | 1011.2 |
| 20260508163628 | 60 | 360 | 6.0 | 12.0 | 0.00 | 0.00 | 0.00 | 36 | 1011.4 |
| 20260508163212 | 60 | 273 | 5.0 | 12.0 | 0.00 | 0.00 | 0.00 | 36 | 1011.5 |
| 20260508162658 | 59 | 186 | 3.0 | 13.0 | 0.00 | 0.00 | 0.00 | 35 | 1011.4 |
| 20260508162148 | 60 | 360 | 3.0 | 8.0 | 0.00 | 0.00 | 0.00 | 36 | 1011.4 |
| 20260508161651 | 60 | 22 | 2.0 | 10.0 | 0.00 | 0.00 | 0.00 | 38 | 1011.4 |
| 20260508161140 | 59 | 192 | 4.0 | 12.0 | 0.00 | 0.00 | 0.00 | 37 | 1011.6 |
| 20260508160632 | 59 | 150 | 5.0 | 14.0 | 0.00 | 0.00 | 0.00 | 37 | 1011.6 |
| 20260508160127 | 58 | 360 | 9.0 | 14.0 | 0.00 | 0.00 | 0.00 | 37 | 1011.5 |
| 20260508155701 | 59 | 360 | 2.0 | 12.0 | 0.00 | 0.00 | 0.00 | 39 | 1011.6 |
| 20260508155131 | 58 | 360 | 2.0 | 12.0 | 0.00 | 0.00 | 0.00 | 39 | 1011.6 |
| 20260508154625 | 58 | 360 | 3.0 | 9.0 | 0.00 | 0.00 | 0.00 | 39 | 1011.6 |
| 20260508154136 | 57 | 148 | 5.0 | 9.0 | 0.00 | 0.00 | 0.00 | 39 | 1011.7 |
| 20260508153627 | 58 | 360 | 5.0 | 10.0 | 0.00 | 0.00 | 0.00 | 39 | 1011.7 |
| 20260508153130 | 57 | 151 | 3.0 | 13.0 | 0.00 | 0.00 | 0.00 | 41 | 1011.6 |
| 20260508152640 | 57 | 360 | 6.0 | 13.0 | 0.00 | 0.00 | 0.00 | 42 | 1011.8 |
| 20260508152131 | 57 | 133 | 2.0 | 11.0 | 0.00 | 0.00 | 0.00 | 43 | 1011.8 |
| 20260508151712 | 56 | 360 | 4.0 | 11.0 | 0.00 | 0.00 | 0.00 | 44 | 1011.8 |
| 20260508151140 | 57 | 360 | 5.0 | 11.0 | 0.00 | 0.00 | 0.00 | 40 | 1011.8 |
| 20260508150650 | 56 | 144 | 3.0 | 11.0 | 0.00 | 0.00 | 0.00 | 38 | 1011.9 |
| 20260508150142 | 56 | 360 | 4.0 | 10.0 | 0.00 | 0.00 | 0.00 | 40 | 1012.0 |
| 20260508145652 | 56 | 360 | 6.0 | 10.0 | 0.00 | 0.00 | 0.00 | 37 | 1012.0 |
| 20260508145151 | 57 | 236 | 4.0 | 6.0 | 0.00 | 0.00 | 0.00 | 39 | 1012.0 |
| 20260508144641 | 56 | 146 | 1.0 | 9.0 | 0.00 | 0.00 | 0.00 | 45 | 1012.0 |
| 20260508144132 | 56 | 360 | 5.0 | 9.0 | 0.00 | 0.00 | 0.00 | 43 | 1012.0 |
| 20260508143643 | 56 | 360 | 5.0 | 11.0 | 0.00 | 0.00 | 0.00 | 43 | 1012.0 |
| 20260508143137 | 55 | 360 | 2.0 | 11.0 | 0.00 | 0.00 | 0.00 | 42 | 1012.0 |
| 20260508142627 | 55 | 360 | 6.0 | 11.0 | 0.00 | 0.00 | 0.00 | 44 | 1012.1 |
| 20260508142138 | 55 | 360 | 4.0 | 10.0 | 0.00 | 0.00 | 0.00 | 47 | 1012.2 |
| 20260508141641 | 55 | 360 | 4.0 | 12.0 | 0.00 | 0.00 | 0.00 | 50 | 1012.2 |
| 20260508141148 | 55 | 155 | 7.0 | 12.0 | 0.00 | 0.00 | 0.00 | 53 | 1012.2 |
| 20260508140639 | 55 | 360 | 4.0 | 5.0 | 0.00 | 0.00 | 0.00 | 52 | 1012.2 |
| 20260508140133 | 55 | 140 | 3.0 | 5.0 | 0.00 | 0.00 | 0.00 | 56 | 1012.1 |
| 20260508135644 | 54 | 157 | 3.0 | 5.0 | 0.00 | 0.00 | 0.00 | 59 | 1012.2 |
| 20260508135134 | 54 | 141 | 1.0 | 8.0 | 0.00 | 0.00 | 0.00 | 59 | 1012.2 |
| 20260508134628 | 54 | 150 | 3.0 | 5.0 | 0.00 | 0.00 | 0.00 | 61 | 1012.2 |
| 20260508134148 | 53 | 142 | 1.0 | 5.0 | 0.00 | 0.00 | 0.00 | 63 | 1012.1 |
| 20260508133630 | 52 | 145 | 3.0 | 5.0 | 0.00 | 0.00 | 0.00 | 64 | 1012.3 |
| 20260508133130 | 52 | 154 | 1.0 | 7.0 | 0.00 | 0.00 | 0.00 | 66 | 1012.2 |
| 20260508132641 | 52 | 142 | 3.0 | 6.0 | 0.00 | 0.00 | 0.00 | 66 | 1012.3 |
| 20260508132131 | 50 | 148 | 2.0 | 7.0 | 0.00 | 0.00 | 0.00 | 68 | 1012.3 |
| 20260508131625 | 50 | 148 | 2.0 | 7.0 | 0.00 | 0.00 | 0.00 | 68 | 1012.5 |
| 20260508131135 | 49 | 148 | 2.0 | 5.0 | 0.00 | 0.00 | 0.00 | 70 | 1012.5 |
| 20260508130626 | 49 | 145 | 3.0 | 5.0 | 0.00 | 0.00 | 0.00 | 70 | 1012.5 |
| 20260508130150 | 48 | 140 | 1.0 | 5.0 | 0.00 | 0.00 | 0.00 | 72 | 1012.6 |
| 20260508125640 | 47 | 153 | 3.0 | 6.0 | 0.00 | 0.00 | 0.00 | 73 | 1012.6 |
| 20260508125147 | 47 | 157 | 1.0 | 8.0 | 0.00 | 0.00 | 0.00 | 73 | 1012.7 |
| 20260508124642 | 46 | 145 | 3.0 | 8.0 | 0.00 | 0.00 | 0.00 | 73 | 1012.6 |
| 20260508124133 | 46 | 156 | 1.0 | 4.0 | 0.00 | 0.00 | 0.00 | 75 | 1012.6 |
| 20260508123643 | 45 | 145 | 2.0 | 7.0 | 0.00 | 0.00 | 0.00 | 76 | 1012.6 |
| 20260508123147 | 45 | 146 | 2.0 | 7.0 | 0.00 | 0.00 | 0.00 | 76 | 1012.7 |
| 20260508122628 | 45 | 140 | 2.0 | 5.0 | 0.00 | 0.00 | 0.00 | 78 | 1012.6 |
| 20260508122148 | 44 | 140 | 2.0 | 4.0 | 0.00 | 0.00 | 0.00 | 79 | 1012.6 |
| 20260508121639 | 44 | 132 | 3.0 | 4.0 | 0.00 | 0.00 | 0.00 | 79 | 1012.6 |
| 20260508121130 | 43 | 46 | 1.0 | 2.0 | 0.00 | 0.00 | 0.00 | 80 | 1012.4 |
| 20260508120641 | 43 | 360 | 1.0 | 2.0 | 0.00 | 0.00 | 0.00 | 81 | 1012.4 |
| 20260508120136 | 43 | 360 | 0.0 | 1.0 | 0.00 | 0.00 | 0.00 | 82 | 1012.3 |
| 20260508115627 | 42 | 360 | 0.0 | 1.0 | 0.00 | 0.00 | 0.00 | 83 | 1012.2 |
| 20260508115207 | 41 | 360 | 0.0 | 1.0 | 0.00 | 0.00 | 0.00 | 84 | 1012.2 |
| 20260508114641 | 41 | 355 | 0.0 | 0.0 | 0.00 | 0.00 | 0.00 | 85 | 1012.2 |
| 20260508114131 | 40 | 355 | 0.0 | 1.0 | 0.00 | 0.00 | 0.00 | 87 | 1012.1 |
| 20260508113638 | 39 | 355 | 0.0 | 1.0 | 0.00 | 0.00 | 0.00 | 87 | 1012.1 |
| 20260508113133 | 39 | 350 | 0.0 | 1.0 | 0.00 | 0.00 | 0.00 | 87 | 1012.1 |
| 20260508112653 | 39 | 355 | 0.0 | 0.0 | 0.00 | 0.00 | 0.00 | 88 | 1012.1 |
| 20260508112203 | 38 | 355 | 0.0 | 0.0 | 0.00 | 0.00 | 0.00 | 89 | 1012.1 |
| 20260508111636 | 37 | 355 | 0.0 | 0.0 | 0.00 | 0.00 | 0.00 | 88 | 1012.1 |
| 20260508111126 | 37 | 355 | 0.0 | 0.0 | 0.00 | 0.00 | 0.00 | 88 | 1012.1 |
| 20260508110637 | 37 | 350 | 0.0 | 0.0 | 0.00 | 0.00 | 0.00 | 88 | 1012.1 |
| 20260508110127 | 37 | 350 | 0.0 | 1.0 | 0.00 | 0.00 | 0.00 | 88 | 1012.1 |
| 20260508105647 | 37 | 355 | 0.0 | 1.0 | 0.00 | 0.00 | 0.00 | 88 | 1012.1 |
| 20260508105157 | 36 | 355 | 0.0 | 0.0 | 0.00 | 0.00 | 0.00 | 88 | 1012.0 |
| 20260508104631 | 36 | 355 | 0.0 | 0.0 | 0.00 | 0.00 | 0.00 | 88 | 1011.9 |
| 20260508104212 | 36 | 355 | 0.0 | 0.0 | 0.00 | 0.00 | 0.00 | 88 | 1011.9 |
| 20260508103702 | 37 | 355 | 0.0 | 1.0 | 0.00 | 0.00 | 0.00 | 87 | 1011.8 |
| 20260508103131 | 37 | 355 | 0.0 | 1.0 | 0.00 | 0.00 | 0.00 | 87 | 1011.9 |
| 20260508102642 | 37 | 355 | 0.0 | 1.0 | 0.00 | 0.00 | 0.00 | 87 | 1011.9 |
| 20260508102132 | 37 | 355 | 0.0 | 1.0 | 0.00 | 0.00 | 0.00 | 87 | 1011.9 |
| 20260508101636 | 37 | 355 | 0.0 | 1.0 | 0.00 | 0.00 | 0.00 | 87 | 1011.9 |
| 20260508101146 | 37 | 355 | 0.0 | 1.0 | 0.00 | 0.00 | 0.00 | 86 | 1012.0 |
| 20260508100637 | 37 | 355 | 0.0 | 0.0 | 0.00 | 0.00 | 0.00 | 86 | 1012.0 |
| 20260508100131 | 37 | 355 | 0.0 | 0.0 | 0.00 | 0.00 | 0.00 | 86 | 1012.0 |
| 20260508095646 | 37 | 355 | 0.0 | 0.0 | 0.00 | 0.00 | 0.00 | 86 | 1012.1 |
| 20260508095125 | 37 | 355 | 0.0 | 0.0 | 0.00 | 0.00 | 0.00 | 85 | 1011.9 |
| 20260508094648 | 37 | 355 | 0.0 | 0.0 | 0.00 | 0.00 | 0.00 | 85 | 1012.1 |
| 20260508094138 | 38 | 355 | 0.0 | 0.0 | 0.00 | 0.00 | 0.00 | 85 | 1012.0 |
| 20260508093628 | 38 | 355 | 0.0 | 1.0 | 0.00 | 0.00 | 0.00 | 85 | 1012.0 |
| 20260508093154 | 38 | 355 | 0.0 | 2.0 | 0.00 | 0.00 | 0.00 | 85 | 1011.9 |
| 20260508092644 | 38 | 355 | 0.0 | 2.0 | 0.00 | 0.00 | 0.00 | 84 | 1012.1 |
| 20260508092151 | 38 | 355 | 0.0 | 1.0 | 0.00 | 0.00 | 0.00 | 84 | 1012.1 |
| 20260508091625 | 38 | 355 | 0.0 | 1.0 | 0.00 | 0.00 | 0.00 | 84 | 1012.1 |
| 20260508091157 | 38 | 355 | 0.0 | 1.0 | 0.00 | 0.00 | 0.00 | 84 | 1012.1 |
| 20260508090627 | 38 | 355 | 0.0 | 1.0 | 0.00 | 0.00 | 0.00 | 84 | 1012.1 |
| 20260508090129 | 38 | 355 | 0.0 | 0.0 | 0.00 | 0.00 | 0.00 | 83 | 1012.1 |
| 20260508085640 | 38 | 355 | 0.0 | 0.0 | 0.00 | 0.00 | 0.00 | 83 | 1012.1 |
| 20260508085130 | 38 | 355 | 0.0 | 0.0 | 0.00 | 0.00 | 0.00 | 83 | 1012.1 |
| 20260508084642 | 38 | 355 | 0.0 | 0.0 | 0.00 | 0.00 | 0.00 | 82 | 1012.1 |
| 20260508084132 | 39 | 355 | 0.0 | 0.0 | 0.00 | 0.00 | 0.00 | 82 | 1012.1 |
| 20260508083643 | 39 | 355 | 0.0 | 0.0 | 0.00 | 0.00 | 0.00 | 81 | 1012.1 |
| 20260508083147 | 39 | 355 | 0.0 | 0.0 | 0.00 | 0.00 | 0.00 | 81 | 1012.1 |
| 20260508082629 | 39 | 355 | 0.0 | 0.0 | 0.00 | 0.00 | 0.00 | 81 | 1012.1 |
| 20260508082149 | 40 | 355 | 0.0 | 0.0 | 0.00 | 0.00 | 0.00 | 81 | 1012.1 |
| 20260508081643 | 40 | 355 | 0.0 | 0.0 | 0.00 | 0.00 | 0.00 | 80 | 1012.2 |
| 20260508081133 | 40 | 355 | 0.0 | 0.0 | 0.00 | 0.00 | 0.00 | 80 | 1012.1 |
| 20260508080639 | 40 | 355 | 0.0 | 1.0 | 0.00 | 0.00 | 0.00 | 81 | 1012.2 |